Regional Weather Roundup
Issued by NWS

Home | Current Version | Previous Version | Graphics & Text | Print | Product List | Glossary Off
Versions: 1 2 3 4 5 6 7 8 9 10 11 12 13 14 15 16 17 18 19 20 21 22 23 24 25 26 27 28 29 30 31 32 33 34 35 36 37 38 39 40 41 42 43 44 45 46 47 48 49 50

743
ASUS43 KTOP 271359
RWRKS

WEATHER ROUNDUP FOR KANSAS
NATIONAL WEATHER SERVICE GOODLAND KS
900 AM CDT THU APR 27 2017

NOTE:  "FAIR" INDICATES FEW OR NO CLOUDS BELOW 12,000 FEET WITH NO
SIGNIFICANT WEATHER AND/OR OBSTRUCTIONS TO VISIBILITY.

KSZ001>006-013>018-027>032-041>047-271500-
NORTHWEST KANSAS

CITY           SKY/WX    TMP DP  RH WIND       PRES   REMARKS
GOODLAND       CLOUDY    44  34  67 S13       29.59S
HAYS           CLOUDY    39  35  86 SE9       29.73R
HILL CITY      SUNNY     40  35  83 E8        29.71R
RUSSELL        CLOUDY    40  34  79 SE7       29.73R
$$

KSZ061>065-074>080-084>089-271500-
SOUTHWEST KANSAS

CITY           SKY/WX    TMP DP  RH WIND       PRES   REMARKS
DODGE CITY     PTSUNNY   50  39  66 SE12      29.67S
ELKHART          N/A     45  35  68 S13         N/A
GARDEN CITY    PTSUNNY   49  36  61 S10       29.65R
GREAT BEND     MOSUNNY   43  35  73 E13       29.73S
LIBERAL        CLOUDY    50  40  68 S15       29.65F
$$

KSZ066>073-081>083-090>101-271500-
SOUTHEAST KANSAS

CITY           SKY/WX    TMP DP  RH WIND       PRES   REMARKS
CHANUTE        SUNNY     46  40  79 SW3       29.79R
COFFEYVILLE    SUNNY     47  42  83 CALM      29.81R
HUTCHINSON     SUNNY     45  36  70 E9        29.76S
MEDICINE LODGE   N/A     47  40  76 E9        29.72S
NEWTON         SUNNY     46  38  73 S8        29.79R
PARSONS        SUNNY     47  41  80 CALM      29.82R
WICHITA INTL   MOSUNNY   46  38  73 E8        29.77F
WICHITA JABRA  SUNNY     46  38  73 E6        29.78R
WICHITA MCCONL SUNNY     46  35  66 SE9       29.78R
WINFIELD       SUNNY     48  41  76 E6        29.78F
$$

KSZ007>012-019>026-033>040-048>060-102>105-271500-
NORTHEAST KANSAS

CITY           SKY/WX    TMP DP  RH WIND       PRES   REMARKS
CONCORDIA      SUNNY     44  34  67 N5        29.74S
EMPORIA        SUNNY     44  38  79 NW3       29.76R
LAWRENCE       SUNNY     47  35  63 W12       29.76R
MANHATTAN      SUNNY     44  36  73 S6        29.77R
OLATHE IND     SUNNY     46  34  62 NW10      29.76R
OLATHE EXE     SUNNY     45  34  65 W9        29.75R
SALINA         SUNNY     44  35  70 SE3       29.77R
TOPEKA BILLARD SUNNY     46  35  65 W8        29.76R
TOPEKA FORBES  SUNNY     49  35  58 NW6       29.75R
$$




USA.gov is the U.S. government's official web portal to all federal, state and local government web resources and services.